Location: Chomutov
(50.4500°N, 13.4333°E)
Time: 19:03:02
(UTC+02:00)

FO-29 - Pass Details

Date: 25 September 2021
Orbit: 800 x 1321 km, 98.6° (Epoch: 23 October)

Event Time Altitude Azimuth Distance (km) Brightness Sun altitude
Exits shadow 22:55:59 25° 230° (SW) 2,342 11.4 -34.4°
Maximum altitude 22:59:10 34° 270° (W) 2,030 11.3 -34.7°
Drops below altitude 10° 23:06:10 10° 332° (NNW) 3,362 13.1 -35.4°
Sets 23:09:17 0° 342° (NNW) 4,327 13.8 -35.6°
